Flag for U.S.A. Weather past 2 weeks in Lawrence, Kansas, U.S.A.

Now
80 °F

Clear.


Feels Like: 84 °F
Forecast: 71 / 90 °F
Wind: 5 mph from South

Location: Lawrence Municipal Airport

Current Time: Aug 2, 2015 at 10:20:24 PM

Latest Report: Aug 2, 2015 at 9:52 PM


Visibility: 10 mi

Pressure: 29.82 "Hg

Humidity: 74%

Dew point: 71 °F

Location of LawrenceLocation

Historic Weather in Lawrence — Graph

°F

Lawrence temperature yesterday

Maximum temperature yesterday: 92 °F (at 2:52 PM)
Minimum temperature yesterday: 68 °F (at 2:52 AM)
Average temperature yesterday: 80 °F

Past Weeks' High & Low Weather Summary

 TemperatureHumidityPressure
High98 °F (Jul 24, 4:52 PM)96% (Jul 20, 6:52 AM)30.21 "Hg (Jul 20, 6:52 AM)
Low59 °F (Jul 31, 5:52 AM)39% (Jul 30, 3:52 PM)29.80 "Hg (Aug 2, 6:52 PM)
Average79 °F75%29.94 "Hg
* Reported Jul 18 8:52 PM — Aug 2 8:52 PM, Lawrence, Weather by CustomWeather, © 2015

Note: Actual official high and low records may vary slightly from our data, if they occured in-between our weather recording intervals... More about our weather records

Advertising

Lawrence weather history for previous 24 hours

 ConditionsComfort  
Time TempWeatherWind HumidityBarometerVisibility
8:52 PM
Sun, Aug 2
82 °FSunny.6 mph67%29.81 "Hg10 mi
7:52 PM88 °FSunny.5 mph54%29.81 "Hg10 mi
6:52 PM90 °FSunny.10 mph48%29.80 "Hg10 mi
5:52 PM91 °FSunny.7 mph49%29.81 "Hg10 mi
4:52 PM92 °FSunny.12 mph46%29.83 "Hg10 mi
3:52 PM92 °FSunny.9 mph46%29.84 "Hg10 mi
2:52 PM92 °FSunny.10 mph46%29.85 "Hg10 mi
1:52 PM91 °FSunny.14 mph45%29.86 "Hg10 mi
12:52 PM90 °FSunny.12 mph47%29.88 "Hg10 mi
11:52 AM88 °FSunny.14 mph48%29.89 "Hg10 mi
10:52 AM86 °FSunny.12 mph55%29.89 "Hg10 mi
9:52 AM84 °FSunny.8 mph59%29.90 "Hg10 mi
8:52 AM80 °FSunny.6 mph67%29.90 "Hg10 mi
7:52 AM75 °FSunny.3 mph85%29.90 "Hg10 mi
6:52 AM70 °FClear.6 mph90%29.90 "Hg10 mi
5:52 AM69 °FClear.3 mph90%29.89 "Hg10 mi
4:52 AM69 °FClear.3 mph90%29.89 "Hg10 mi
3:52 AM69 °FClear.3 mph90%29.90 "Hg10 mi
2:52 AM69 °FClear.5 mph90%29.92 "Hg10 mi
1:52 AM69 °FClear.3 mph90%29.93 "Hg10 mi
12:52 AM70 °FClear.6 mph87%29.94 "Hg10 mi
11:52 PM
Sat, Aug 1
71 °FClear.6 mph84%29.95 "Hg10 mi
10:52 PM73 °FClear.7 mph79%29.95 "Hg10 mi
Weather by CustomWeather, © 2015

See weather overviewHow to use our weather pages